EW7084 Weather Reports


Display with metric or nautical units.
time (UTC)temp
F
wind
direction
speed
MPH
gust
MPH
rain 1hr
in
rain 24hr
in
rain mn
in
humidity
%
barometer
mb
20260903114531 67 161 0.0 2.0 0.00 0.71 0.14 94 1015.0
20260903113030 67 161 0.0 0.0 0.00 0.71 0.14 94 1014.9
20260903111532 67 161 0.0 2.0 0.00 0.71 0.14 94 1014.6
20260903110027 67 161 0.0 2.0 0.00 0.71 0.14 94 1014.6
20260903104527 67 161 0.0 5.0 0.00 0.71 0.14 94 1014.5
20260903103025 67 161 1.0 5.0 0.00 0.71 0.14 94 1014.6
20260903101527 67 161 4.0 7.0 0.00 0.71 0.14 94 1014.8
20260903100023 66 146 0.0 2.0 0.00 0.71 0.14 94 1014.9
20260903094523 66 146 0.0 3.0 0.00 0.71 0.14 94 1015.1
20260903093032 66 146 0.0 3.0 0.00 0.71 0.14 94 1015.2
20260903091533 66 146 0.0 2.0 0.00 0.71 0.14 94 1015.3
20260903090025 66 146 0.0 2.0 0.00 0.71 0.14 94 1015.1
20260903084539 66 146 0.0 2.0 0.00 0.71 0.14 93 1014.7
20260903081520 66 146 0.0 2.0 0.00 0.71 0.14 93 1014.9
20260903080019 66 146 0.0 2.0 0.00 0.71 0.14 93 1015.1
20260903074519 66 146 1.0 2.0 0.00 0.71 0.14 93 1015.0
20260903073018 66 146 0.0 1.0 0.01 0.71 0.14 93 1015.0
20260903071517 66 146 1.0 3.0 0.01 0.71 0.14 93 1014.7
20260903070023 66 146 1.0 3.0 0.01 0.71 0.14 93 1014.8
20260903064515 66 146 0.0 2.0 0.01 0.71 0.14 93 1015.2
20260903063016 66 146 0.0 3.0 0.00 0.70 0.13 93 1014.8
20260903061515 66 155 0.0 5.0 0.00 0.70 0.13 93 1015.2
20260903060012 66 156 2.0 7.0 0.00 0.70 0.13 93 1015.6
20260903054514 66 176 6.0 8.0 0.01 0.70 0.13 93 1015.4
20260903053008 67 163 4.0 8.0 0.04 0.70 0.13 93 1015.5
20260903051506 67 162 3.0 8.0 0.08 0.70 0.13 93 1015.6
20260903050019 67 155 2.0 7.0 0.12 0.70 0.13 93 1015.5
20260903044504 67 147 5.0 12.0 0.17 0.69 0.12 93 1015.6
20260903043100 68 114 2.0 6.0 0.16 0.66 0.09 93 1016.6
20260903041556 68 166 5.0 12.0 0.15 0.62 0.05 92 1017.7
20260903040054 69 157 3.0 6.0 0.16 0.57 0.01 93 1017.8
20260903034552 69 157 3.0 7.0 0.15 0.52 0.52 93 1017.0
20260903033053 69 156 5.0 8.0 0.19 0.50 0.50 92 1016.1
20260903031552 69 157 3.0 7.0 0.19 0.47 0.47 92 1016.2
20260903030100 70 156 3.0 8.0 0.32 0.42 0.42 92 1016.5
20260903024551 70 157 3.0 8.0 0.28 0.37 0.37 92 1017.7
20260903023048 70 169 6.0 12.0 0.22 0.31 0.31 92 1018.5
20260903021548 70 346 0.0 9.0 0.20 0.27 0.27 91 1018.3
20260903020101 70 171 4.0 9.0 0.03 0.10 0.10 91 1017.9
20260903014545 71 150 3.0 8.0 0.02 0.09 0.09 90 1016.5
20260903013045 71 163 2.0 8.0 0.02 0.09 0.09 89 1017.1
20260903011645 71 161 3.0 6.0 0.00 0.07 0.07 89 1017.1
20260903010044 72 161 2.0 7.0 0.00 0.07 0.07 88 1016.5
20260903004543 72 161 3.0 8.0 0.00 0.07 0.07 88 1015.8
20260903003044 72 159 3.0 8.0 0.00 0.07 0.07 88 1015.3
20260903001555 72 163 2.0 9.0 0.00 0.07 0.07 87 1016.1
20260903000044 72 163 0.0 5.0 0.00 0.07 0.07 87 1016.1
20260902234540 72 89 2.0 7.0 0.00 0.07 0.07 87 1016.4
20260902233038 73 143 3.0 5.0 0.00 0.07 0.07 87 1016.2
20260902231540 73 169 2.0 7.0 0.00 0.07 0.07 87 1016.1
20260902230037 73 154 1.0 6.0 0.00 0.07 0.07 87 1015.6
20260902224536 73 155 3.0 9.0 0.00 0.07 0.07 87 1015.7
20260902223035 73 161 3.0 9.0 0.00 0.07 0.07 87 1015.7
20260902221550 73 157 2.0 9.0 0.00 0.07 0.07 88 1016.0
20260902220032 73 162 2.0 9.0 0.00 0.07 0.07 88 1016.1
20260902214532 72 162 4.0 8.0 0.00 0.07 0.07 89 1016.6
20260902213033 72 156 5.0 10.0 0.00 0.07 0.07 88 1016.7
20260902211529 72 144 4.0 12.0 0.00 0.07 0.07 88 1016.6
20260902210031 73 157 5.0 8.0 0.00 0.07 0.07 88 1016.7
20260902204528 73 163 4.0 13.0 0.00 0.07 0.07 88 1016.5
20260902203030 73 164 2.0 7.0 0.00 0.07 0.07 89 1016.5
20260902201536 73 153 3.0 10.0 0.00 0.07 0.07 88 1016.4
20260902200024 73 162 4.0 8.0 0.00 0.07 0.07 88 1016.9
20260902194532 73 162 3.0 10.0 0.00 0.07 0.07 89 1017.4
20260902193022 73 156 2.0 7.0 0.00 0.07 0.07 89 1017.4
20260902191522 73 156 2.0 8.0 0.00 0.07 0.07 88 1017.4
20260902184521 73 163 6.0 9.0 0.00 0.07 0.07 87 1017.2
20260902183020 74 178 4.0 10.0 0.00 0.07 0.07 87 1017.2
20260902181520 74 194 5.0 10.0 0.00 0.07 0.07 87 1017.3
20260902180017 74 101 2.0 7.0 0.00 0.07 0.07 88 1017.5
20260902174514 74 162 2.0 10.0 0.00 0.07 0.07 89 1017.9
20260902173011 74 169 7.0 11.0 0.00 0.07 0.07 90 1018.1
20260902171510 73 148 3.0 9.0 0.00 0.07 0.07 91 1018.3
20260902170007 73 146 4.0 10.0 0.00 0.07 0.07 91 1018.3
20260902164505 73 158 2.0 8.0 0.00 0.07 0.07 91 1018.3
20260902163001 73 164 2.0 9.0 0.00 0.07 0.07 92 1018.3
20260902161557 73 138 3.0 9.0 0.01 0.07 0.07 92 1018.1
20260902160058 73 158 3.0 8.0 0.03 0.07 0.07 93 1017.9
20260902154557 72 157 3.0 7.0 0.03 0.07 0.07 92 1017.8
20260902153052 72 157 0.0 3.0 0.03 0.07 0.07 92 1018.3
20260902151551 72 157 1.0 5.0 0.06 0.06 0.06 92 1018.2
20260902150050 72 157 1.0 5.0 0.04 0.04 0.04 92 1018.3
20260902144600 72 157 0.0 5.0 0.04 0.14 0.04 92 1018.2
20260902143049 72 157 0.0 6.0 0.04 0.14 0.04 92 1018.0
20260902141553 72 165 3.0 9.0 0.00 0.10 0.00 92 1017.9
20260902140043 72 157 1.0 7.0 0.00 0.10 0.00 92 1018.1
20260902134541 72 175 1.0 6.0 0.00 0.48 0.00 92 1018.6
20260902133036 72 168 4.0 8.0 0.00 0.48 0.00 93 1018.1
20260902131545 72 164 1.0 6.0 0.00 0.48 0.00 93 1018.3
20260902130047 72 185 2.0 5.0 0.00 0.48 0.00 93 1018.1
20260902124532 72 193 1.0 5.0 0.00 1.25 0.00 93 1017.9
20260902123030 71 138 1.0 5.0 0.00 1.25 0.00 94 1017.7
20260902121527 71 276 0.0 0.0 0.00 1.25 0.00 94 1017.7
20260902120026 69 276 0.0 0.0 0.00 1.25 0.00 94 1017.4